Time,TemperatureF,DewpointF,PressureIn,WindDirection,WindDirectionDegrees,WindSpeedMPH,WindSpeedGustMPH,Humidity,HourlyPrecipIn,Conditions,Clouds,dailyrainin,SoftwareType,DateUTC
2013-07-04 00:02:00,59.0,58.0,30.04,NNE,30,0.0,0.0,98,0.00,,,0.00,,2013-07-04 04:02:00,
2013-07-04 00:11:00,59.0,58.0,30.04,NNE,30,0.0,0.0,98,0.00,,,0.00,,2013-07-04 04:11:00,
2013-07-04 00:22:00,60.0,59.0,30.04,NNE,30,0.0,0.0,98,0.00,,,0.00,,2013-07-04 04:22:00,
2013-07-04 00:33:00,59.0,58.0,30.04,NNE,30,0.0,0.0,98,0.00,,,0.00,,2013-07-04 04:33:00,
2013-07-04 00:43:00,59.0,58.0,30.04,NNE,30,0.0,0.0,98,0.00,,,0.00,,2013-07-04 04:43:00,
2013-07-04 00:52:00,59.0,58.0,30.04,NNE,30,0.0,0.0,98,0.00,,,0.00,,2013-07-04 04:52:00,
2013-07-04 01:02:00,59.0,58.0,30.04,NNE,30,0.0,0.0,98,0.00,,,0.00,,2013-07-04 05:02:00,
2013-07-04 01:12:00,59.0,58.0,30.03,NNE,30,0.0,0.0,98,0.00,,,0.00,,2013-07-04 05:12:00,
2013-07-04 01:22:00,59.0,58.0,30.04,NNE,30,0.0,0.0,98,0.00,,,0.00,,2013-07-04 05:22:00,
2013-07-04 01:33:00,59.0,58.0,30.03,NNE,30,0.0,0.0,98,0.00,,,0.00,,2013-07-04 05:33:00,
2013-07-04 01:43:00,59.0,58.0,30.03,NNE,30,0.0,0.0,98,0.00,,,0.00,,2013-07-04 05:43:00,
2013-07-04 01:52:00,59.0,58.0,30.04,NNE,30,0.0,0.0,98,0.00,,,0.00,,2013-07-04 05:52:00,
2013-07-04 02:01:00,59.0,58.0,30.03,NNE,30,0.0,0.0,98,0.00,,,0.00,,2013-07-04 06:01:00,
2013-07-04 02:11:00,59.0,58.0,30.03,NNE,30,0.0,0.0,98,0.00,,,0.00,,2013-07-04 06:11:00,
2013-07-04 02:22:00,59.0,58.0,30.03,NNE,30,0.0,0.0,98,0.00,,,0.00,,2013-07-04 06:22:00,
2013-07-04 02:34:00,60.0,60.0,30.03,NNE,30,0.0,0.0,99,0.00,,,0.00,,2013-07-04 06:34:00,
2013-07-04 02:43:00,60.0,60.0,30.03,NNE,30,0.0,0.0,99,0.00,,,0.00,,2013-07-04 06:43:00,
2013-07-04 02:53:00,60.0,59.0,30.03,NNE,30,0.0,0.0,98,0.00,,,0.00,,2013-07-04 06:53:00,
2013-07-04 03:02:00,60.0,60.0,30.03,NNE,30,0.0,0.0,99,0.00,,,0.00,,2013-07-04 07:02:00,
2013-07-04 03:12:00,60.0,60.0,30.03,NNE,30,0.0,0.0,99,0.00,,,0.00,,2013-07-04 07:12:00,
2013-07-04 03:22:00,61.0,61.0,30.03,SSW,200,0.0,3.0,99,0.00,,,0.00,,2013-07-04 07:22:00,
2013-07-04 03:34:00,62.0,62.0,30.03,SSW,200,0.0,1.0,99,0.00,,,0.00,,2013-07-04 07:34:00,
2013-07-04 03:43:00,62.0,62.0,30.03,SSW,200,0.0,1.0,99,0.00,,,0.00,,2013-07-04 07:43:00,
2013-07-04 03:52:00,62.0,62.0,30.03,SSW,200,0.0,0.0,99,0.00,,,0.00,,2013-07-04 07:52:00,
2013-07-04 04:02:00,61.0,61.0,30.03,SSW,200,0.0,0.0,99,0.00,,,0.00,,2013-07-04 08:02:00,
2013-07-04 04:12:00,61.0,61.0,30.03,SSW,200,0.0,0.0,99,0.00,,,0.00,,2013-07-04 08:12:00,
2013-07-04 04:22:00,61.0,61.0,30.03,SSW,200,0.0,0.0,99,0.00,,,0.00,,2013-07-04 08:22:00,
2013-07-04 04:33:00,61.0,61.0,30.03,SSW,200,0.0,0.0,99,0.00,,,0.00,,2013-07-04 08:33:00,
2013-07-04 04:42:00,61.0,61.0,30.03,SSW,200,0.0,0.0,99,0.00,,,0.00,,2013-07-04 08:42:00,
2013-07-04 04:53:00,61.0,61.0,30.03,SSW,200,0.0,0.0,99,0.00,,,0.00,,2013-07-04 08:53:00,
2013-07-04 05:02:00,61.0,61.0,30.03,SSW,200,0.0,0.0,99,0.00,,,0.00,,2013-07-04 09:02:00,
2013-07-04 05:11:00,61.0,61.0,30.03,SSW,200,0.0,0.0,99,0.00,,,0.00,,2013-07-04 09:11:00,
2013-07-04 05:22:00,61.0,61.0,30.04,WNW,293,0.0,2.0,99,0.00,,,0.00,,2013-07-04 09:22:00,
2013-07-04 05:42:00,62.0,62.0,30.04,WNW,293,0.0,0.0,99,0.00,,,0.00,,2013-07-04 09:42:00,
2013-07-04 05:52:00,62.0,62.0,30.04,NW,307,0.0,3.0,99,0.00,,,0.00,,2013-07-04 09:52:00,
2013-07-04 06:01:00,62.0,62.0,30.05,NW,307,0.0,0.0,99,0.00,,,0.00,,2013-07-04 10:01:00,
2013-07-04 06:11:00,62.0,62.0,30.05,NW,307,0.0,0.0,99,0.00,,,0.00,,2013-07-04 10:11:00,
2013-07-04 06:22:00,63.0,63.0,30.05,NW,307,0.0,0.0,99,0.00,,,0.00,,2013-07-04 10:22:00,
2013-07-04 06:43:00,64.0,64.0,30.06,NW,307,0.0,0.0,99,0.00,,,0.00,,2013-07-04 10:43:00,
2013-07-04 06:53:00,64.0,63.0,30.06,NW,307,0.0,0.0,98,0.00,,,0.00,,2013-07-04 10:53:00,
2013-07-04 07:02:00,64.0,63.0,30.06,NW,307,0.0,0.0,97,0.00,,,0.00,,2013-07-04 11:02:00,
2013-07-04 07:12:00,64.0,63.0,30.06,NW,307,0.0,0.0,97,0.00,,,0.00,,2013-07-04 11:12:00,
2013-07-04 07:22:00,65.0,64.0,30.07,North,350,0.0,0.0,96,0.00,,,0.00,,2013-07-04 11:22:00,
2013-07-04 07:34:00,67.0,65.0,30.07,NNE,30,1.0,2.0,94,0.00,,,0.00,,2013-07-04 11:34:00,
2013-07-04 07:43:00,67.0,65.0,30.07,NNE,30,1.0,2.0,94,0.00,,,0.00,,2013-07-04 11:43:00,
2013-07-04 07:53:00,69.0,67.0,30.07,NNE,30,0.0,1.0,94,0.00,,,0.00,,2013-07-04 11:53:00,
2013-07-04 08:02:00,69.0,67.0,30.07,NNE,30,0.0,1.0,94,0.00,,,0.00,,2013-07-04 12:02:00,
2013-07-04 08:12:00,71.0,68.0,30.07,NNE,25,0.0,2.0,90,0.00,,,0.00,,2013-07-04 12:12:00,
2013-07-04 08:22:00,72.0,68.0,30.07,NNE,25,0.0,3.0,88,0.00,,,0.00,,2013-07-04 12:22:00,
2013-07-04 08:33:00,72.0,68.0,30.07,NNE,25,0.0,3.0,88,0.00,,,0.00,,2013-07-04 12:33:00,
2013-07-04 08:43:00,73.0,68.0,30.07,NNE,25,0.0,2.0,85,0.00,,,0.00,,2013-07-04 12:43:00,
2013-07-04 08:52:00,72.0,68.0,30.07,NE,38,1.0,3.0,86,0.00,,,0.00,,2013-07-04 12:52:00,
2013-07-04 09:12:00,71.0,68.0,30.07,NE,49,0.0,3.0,89,0.00,,,0.00,,2013-07-04 13:12:00,
2013-07-04 09:33:00,71.0,68.0,30.07,NE,53,1.0,4.0,89,0.00,,,0.00,,2013-07-04 13:33:00,
2013-07-04 09:43:00,75.0,72.0,30.07,NE,53,0.0,1.0,89,0.00,,,0.00,,2013-07-04 13:43:00,
2013-07-04 09:53:00,75.0,72.0,30.07,NE,53,0.0,1.0,89,0.00,,,0.00,,2013-07-04 13:53:00,
2013-07-04 10:02:00,79.0,70.0,30.06,NW,319,2.0,5.0,74,0.00,,,0.00,,2013-07-04 14:02:00,
2013-07-04 10:12:00,81.0,70.0,30.06,NW,308,2.0,7.0,70,0.00,,,0.00,,2013-07-04 14:12:00,
2013-07-04 10:22:00,82.0,70.0,30.06,NW,319,0.0,6.0,68,0.00,,,0.00,,2013-07-04 14:22:00,
2013-07-04 10:33:00,82.0,70.0,30.06,NW,319,0.0,6.0,68,0.00,,,0.00,,2013-07-04 14:33:00,
2013-07-04 10:43:00,82.0,69.0,30.06,West,276,1.0,7.0,65,0.00,,,0.00,,2013-07-04 14:43:00,
2013-07-04 10:53:00,82.0,69.0,30.06,West,276,1.0,7.0,65,0.00,,,0.00,,2013-07-04 14:53:00,
2013-07-04 11:02:00,82.0,69.0,30.06,NNW,327,3.0,6.0,65,0.00,,,0.00,,2013-07-04 15:02:00,
2013-07-04 11:11:00,83.0,70.0,30.06,WSW,251,0.0,8.0,65,0.00,,,0.00,,2013-07-04 15:11:00,
2013-07-04 11:33:00,83.0,70.0,30.06,West,274,2.0,8.0,64,0.00,,,0.00,,2013-07-04 15:33:00,
2013-07-04 11:43:00,84.0,71.0,30.05,SSE,166,2.0,7.0,66,0.00,,,0.00,,2013-07-04 15:43:00,
2013-07-04 11:52:00,84.0,69.0,30.05,NNW,336,1.0,6.0,61,0.00,,,0.00,,2013-07-04 15:52:00,
2013-07-04 12:02:00,84.0,69.0,30.05,NNW,336,1.0,6.0,61,0.00,,,0.00,,2013-07-04 16:02:00,
2013-07-04 12:11:00,85.0,69.0,30.04,South,171,1.0,6.0,59,0.00,,,0.00,,2013-07-04 16:11:00,
2013-07-04 12:22:00,85.0,70.0,30.04,NNW,331,1.0,7.0,61,0.00,,,0.00,,2013-07-04 16:22:00,
2013-07-04 12:33:00,85.0,70.0,30.04,NNW,331,1.0,7.0,61,0.00,,,0.00,,2013-07-04 16:33:00,
2013-07-04 12:43:00,86.0,71.0,30.04,WSW,253,3.0,8.0,62,0.00,,,0.00,,2013-07-04 16:43:00,
2013-07-04 12:52:00,86.0,69.0,30.04,North,351,2.0,7.0,58,0.00,,,0.00,,2013-07-04 16:52:00,
2013-07-04 13:02:00,86.0,69.0,30.04,North,351,2.0,7.0,58,0.00,,,0.00,,2013-07-04 17:02:00,
2013-07-04 13:12:00,86.0,69.0,30.03,SSW,201,3.0,7.0,57,0.00,,,0.00,,2013-07-04 17:12:00,
2013-07-04 13:22:00,86.0,68.0,30.03,SSW,206,3.0,11.0,56,0.00,,,0.00,,2013-07-04 17:22:00,
2013-07-04 13:34:00,86.0,68.0,30.03,SSW,206,3.0,11.0,56,0.00,,,0.00,,2013-07-04 17:34:00,
2013-07-04 13:43:00,87.0,70.0,30.03,WSW,250,3.0,8.0,57,0.00,,,0.00,,2013-07-04 17:43:00,
2013-07-04 13:53:00,87.0,69.0,30.02,SSW,196,1.0,6.0,56,0.00,,,0.00,,2013-07-04 17:53:00,
2013-07-04 14:01:00,87.0,69.0,30.02,SSW,196,1.0,6.0,56,0.00,,,0.00,,2013-07-04 18:01:00,
2013-07-04 14:11:00,87.0,70.0,30.01,North,5,0.0,6.0,58,0.00,,,0.00,,2013-07-04 18:11:00,
2013-07-04 14:22:00,87.0,72.0,30.01,SSW,207,0.0,7.0,61,0.00,,,0.00,,2013-07-04 18:22:00,
2013-07-04 14:33:00,87.0,72.0,30.01,SSW,207,0.0,7.0,61,0.00,,,0.00,,2013-07-04 18:33:00,
2013-07-04 14:43:00,87.0,69.0,30.01,NNE,26,1.0,5.0,55,0.00,,,0.00,,2013-07-04 18:43:00,
2013-07-04 14:52:00,87.0,71.0,30.01,SSW,210,3.0,7.0,59,0.00,,,0.00,,2013-07-04 18:52:00,
2013-07-04 15:02:00,87.0,71.0,30.01,SSW,210,3.0,7.0,59,0.00,,,0.00,,2013-07-04 19:02:00,
2013-07-04 15:12:00,87.0,70.0,30.00,SE,138,2.0,7.0,57,0.00,,,0.00,,2013-07-04 19:12:00,
2013-07-04 15:22:00,86.0,71.0,30.00,SE,128,4.0,7.0,61,0.00,,,0.00,,2013-07-04 19:22:00,
2013-07-04 15:33:00,86.0,71.0,30.00,SE,128,4.0,7.0,61,0.00,,,0.00,,2013-07-04 19:33:00,
2013-07-04 15:43:00,86.0,72.0,30.00,SE,132,1.0,8.0,63,0.00,,,0.00,,2013-07-04 19:43:00,
2013-07-04 15:53:00,87.0,72.0,30.00,South,186,2.0,7.0,62,0.00,,,0.00,,2013-07-04 19:53:00,
2013-07-04 16:02:00,87.0,72.0,30.00,South,186,2.0,7.0,62,0.00,,,0.00,,2013-07-04 20:02:00,
2013-07-04 16:11:00,87.0,73.0,29.99,SSW,205,3.0,8.0,63,0.00,,,0.00,,2013-07-04 20:11:00,
2013-07-04 16:22:00,86.0,72.0,29.99,East,82,3.0,9.0,63,0.00,,,0.00,,2013-07-04 20:22:00,
2013-07-04 16:34:00,86.0,72.0,29.99,East,82,3.0,9.0,63,0.00,,,0.00,,2013-07-04 20:34:00,
2013-07-04 16:42:00,86.0,73.0,29.99,SSW,207,2.0,7.0,65,0.00,,,0.00,,2013-07-04 20:42:00,
2013-07-04 16:53:00,85.0,73.0,29.99,South,173,3.0,8.0,67,0.00,,,0.00,,2013-07-04 20:53:00,
2013-07-04 17:01:00,85.0,73.0,29.99,South,173,3.0,8.0,67,0.00,,,0.00,,2013-07-04 21:01:00,
2013-07-04 17:12:00,84.0,71.0,29.98,SSW,203,3.0,9.0,66,0.00,,,0.00,,2013-07-04 21:12:00,
2013-07-04 17:22:00,84.0,72.0,29.98,South,173,2.0,7.0,68,0.00,,,0.00,,2013-07-04 21:22:00,
2013-07-04 17:32:00,84.0,72.0,29.98,South,173,2.0,7.0,68,0.00,,,0.00,,2013-07-04 21:32:00,
2013-07-04 17:43:00,83.0,72.0,29.98,SE,132,2.0,8.0,69,0.00,,,0.00,,2013-07-04 21:43:00,
2013-07-04 17:53:00,82.0,71.0,29.98,SW,234,3.0,7.0,69,0.00,,,0.00,,2013-07-04 21:53:00,
2013-07-04 18:02:00,82.0,71.0,29.98,SW,234,3.0,7.0,69,0.00,,,0.00,,2013-07-04 22:02:00,
2013-07-04 18:12:00,81.0,70.0,29.98,South,184,1.0,6.0,70,0.00,,,0.00,,2013-07-04 22:12:00,
2013-07-04 18:22:00,81.0,71.0,29.98,South,188,1.0,6.0,72,0.00,,,0.00,,2013-07-04 22:22:00,
2013-07-04 18:33:00,81.0,71.0,29.98,South,188,1.0,6.0,72,0.00,,,0.00,,2013-07-04 22:33:00,
2013-07-04 18:43:00,79.0,70.0,29.98,South,184,0.0,4.0,74,0.00,,,0.00,,2013-07-04 22:43:00,
2013-07-04 18:52:00,78.0,70.0,29.99,South,184,0.0,1.0,77,0.00,,,0.00,,2013-07-04 22:52:00,
2013-07-04 19:02:00,78.0,70.0,29.99,South,184,0.0,1.0,77,0.00,,,0.00,,2013-07-04 23:02:00,
2013-07-04 19:12:00,77.0,70.0,29.99,SSE,168,0.0,0.0,79,0.00,,,0.00,,2013-07-04 23:12:00,
2013-07-04 19:23:00,75.0,69.0,29.98,NE,40,0.0,1.0,81,0.00,,,0.00,,2013-07-04 23:23:00,
2013-07-04 19:33:00,75.0,69.0,29.98,NE,40,0.0,1.0,81,0.00,,,0.00,,2013-07-04 23:33:00,
2013-07-04 19:43:00,73.0,68.0,29.99,NE,40,0.0,0.0,85,0.00,,,0.00,,2013-07-04 23:43:00,
2013-07-04 19:52:00,73.0,69.0,29.99,NE,40,0.0,2.0,88,0.00,,,0.00,,2013-07-04 23:52:00,
2013-07-04 20:01:00,73.0,69.0,29.99,NE,40,0.0,2.0,88,0.00,,,0.00,,2013-07-05 00:01:00,
2013-07-04 20:12:00,72.0,68.0,29.98,NE,40,0.0,0.0,87,0.00,,,0.00,,2013-07-05 00:12:00,
2013-07-04 20:22:00,71.0,67.0,29.98,NE,40,0.0,1.0,88,0.00,,,0.00,,2013-07-05 00:22:00,
2013-07-04 20:32:00,71.0,67.0,29.98,NE,40,0.0,1.0,88,0.00,,,0.00,,2013-07-05 00:32:00,
2013-07-04 20:43:00,71.0,68.0,29.98,NE,40,0.0,0.0,90,0.00,,,0.00,,2013-07-05 00:43:00,
2013-07-04 20:52:00,71.0,68.0,29.98,NE,40,0.0,0.0,90,0.00,,,0.00,,2013-07-05 00:52:00,
2013-07-04 21:01:00,70.0,67.0,29.97,NE,40,0.0,0.0,91,0.00,,,0.00,,2013-07-05 01:01:00,
2013-07-04 21:11:00,70.0,67.0,29.97,NE,40,0.0,0.0,91,0.00,,,0.00,,2013-07-05 01:11:00,
2013-07-04 21:22:00,70.0,67.0,29.97,NE,40,0.0,0.0,91,0.00,,,0.00,,2013-07-05 01:22:00,
2013-07-04 21:32:00,70.0,67.0,29.98,NE,40,0.0,0.0,91,0.00,,,0.00,,2013-07-05 01:32:00,
2013-07-04 21:42:00,70.0,67.0,29.98,NE,40,0.0,0.0,91,0.00,,,0.00,,2013-07-05 01:42:00,
2013-07-04 21:52:00,70.0,67.0,29.98,NE,40,0.0,0.0,91,0.00,,,0.00,,2013-07-05 01:52:00,
2013-07-04 22:02:00,69.0,67.0,29.98,NE,40,0.0,0.0,93,0.00,,,0.00,,2013-07-05 02:02:00,
2013-07-04 22:11:00,69.0,67.0,29.98,NE,40,0.0,0.0,93,0.00,,,0.00,,2013-07-05 02:11:00,
2013-07-04 22:22:00,69.0,67.0,29.98,NE,40,0.0,0.0,93,0.00,,,0.00,,2013-07-05 02:22:00,
2013-07-04 22:32:00,69.0,67.0,29.98,NE,40,0.0,0.0,94,0.00,,,0.00,,2013-07-05 02:32:00,
2013-07-04 22:42:00,69.0,67.0,29.98,NE,40,0.0,0.0,94,0.00,,,0.00,,2013-07-05 02:42:00,
2013-07-04 23:02:00,69.0,68.0,29.97,NE,40,0.0,0.0,95,0.00,,,0.00,,2013-07-05 03:02:00,
2013-07-04 23:11:00,69.0,68.0,29.97,NE,40,0.0,0.0,95,0.00,,,0.00,,2013-07-05 03:11:00,
2013-07-04 23:22:00,69.0,68.0,29.97,NE,40,0.0,0.0,95,0.00,,,0.00,,2013-07-05 03:22:00,
2013-07-04 23:33:00,68.0,67.0,29.97,NE,40,0.0,0.0,95,0.00,,,0.00,,2013-07-05 03:33:00,
2013-07-04 23:42:00,68.0,67.0,29.97,NE,40,0.0,0.0,95,0.00,,,0.00,,2013-07-05 03:42:00,
2013-07-04 23:52:00,68.0,67.0,29.97,NE,40,0.0,0.0,95,0.00,,,0.00,,2013-07-05 03:52:00,